This demonstration page uses our WeatherBlox Daily Observations layout. Learn more.

Left ArrowRight Arrow

44.89941, -97.11507

Hourly Observations for January 17, 2016

Temp ( °F °C ) Dew Point ( °F °C ) Humidity (%) Winds ( mph kmh ) Pressure ( in mb ) Visibility ( mi km ) Precip ( " mm )
12:53 am 00:53 Clear -13 -25 -20 -28.9 70 70 WNW 8 13 30.26 1025 10 16 0.00 0.00
1:53 am 01:53 Clear -14 -25.6 -21 -29.4 71 71 WNW 10 17 30.27 1025 10 16 0.00 0.00
2:53 am 02:53 Clear -14 -25.6 -21 -29.4 71 71 WNW 13 20 30.29 1026 10 16 0.00 0.00
3:53 am 03:53 Clear -14 -25.6 -21 -29.4 71 71 WNW 13 20 30.29 1026 10 16 0.00 0.00
4:53 am 04:53 Clear -14 -25.6 -22 -30 67 67 NW 12 19 30.29 1026 10 16 0.00 0.00
5:53 am 05:53 Clear -15 -26.1 -22 -30 70 70 WNW 9 15 30.31 1026 10 16 0.00 0.00
6:53 am 06:53 Partly Cloudy -15 -26.1 -22 -30 70 70 WNW 10 17 30.32 1027 10 16 0.00 0.00
7:53 am 07:53 Cloudy -14 -25.6 -21 -29.4 71 71 WNW 12 19 30.33 1027 10 16 0.00 0.00
8:53 am 08:53 Cloudy -11 -23.9 -19 -28.3 67 67 NW 13 20 30.35 1028 10 16 0.00 0.00
9:49 am 09:49 Cloudy -9 -23 -18 -28 64 64 NNW 10 17 30.45 1031 10 16 0.00 0.00
9:53 am 09:53 Cloudy -10 -23.3 -18 -27.8 67 67 NNW 10 17 30.37 1028 10 16 0.00 0.00
10:53 am 10:53 Cloudy -9 -22.8 -17 -27.2 67 67 WNW 9 15 30.39 1029 10 16 0.00 0.00
11:53 am 11:53 Mostly Cloudy -7 -21.7 -15 -26.1 68 68 NW 10 17 30.38 1029 10 16 0.00 0.00
12:01 pm 12:01 Mostly Cloudy -7 -21.7 -16 -26.7 64 64 NW 13 20 30.48 1032 10 16 0.00 0.00
12:17 pm 12:17 Cloudy -6 -21.1 -15 -26.1 64 64 NW 13 20 30.45 1031 8 13 0.00 0.00
12:53 pm 12:53 Cloudy -6 -21.1 -15 -26.1 64 64 NW 10 17 30.37 1028 9 14 0.00 0.00
1:37 pm 13:37 Mostly Cloudy -5 -20.6 -14 -25.6 64 64 NW 13 20 30.42 1030 10 16 0.00 0.00
1:53 pm 13:53 Mostly Cloudy -4 -20 -13 -25 65 65 NW 13 20 30.35 1028 10 16 0.00 0.00
2:53 pm 14:53 Cloudy -3 -19.4 -12 -24.4 65 65 NW 13 20 30.35 1028 10 16 0.00 0.00
3:53 pm 15:53 Mostly Cloudy -3 -19.4 -12 -24.4 65 65 NW 10 17 30.36 1028 10 16 0.00 0.00
4:08 pm 16:08 Mostly Cloudy -3 -19.4 -12 -24.4 65 65 NW 9 15 30.45 1031 10 16 0.00 0.00
4:18 pm 16:18 Mostly Cloudy -3 -19.4 -12 -24.4 65 65 NW 9 15 30.45 1031 9 14 0.00 0.00
4:34 pm 16:34 Cloudy -2 -18.9 -11 -23.9 65 65 WNW 10 17 30.45 1031 10 16 0.00 0.00
4:53 pm 16:53 Partly Cloudy -3 -19.4 -12 -24.4 65 65 WNW 9 15 30.37 1029 10 16 0.00 0.00
5:53 pm 17:53 Partly Cloudy -3 -19.4 -11 -23.9 68 68 WNW 8 13 30.39 1029 10 16 0.00 0.00
6:53 pm 18:53 Cloudy -3 -19.4 -11 -23.9 68 68 NW 9 15 30.40 1030 10 16 0.00 0.00
7:53 pm 19:53 Cloudy -2 -18.9 -10 -23.3 68 68 NW 10 17 30.40 1029 10 16 0.00 0.00
8:53 pm 20:53 Cloudy -1 -18.3 -9 -22.8 68 68 NW 8 13 30.39 1029 10 16 0.00 0.00
9:53 pm 21:53 Cloudy -1 -18.3 -9 -22.8 68 68 NW 7 11 30.38 1029 10 16 0.00 0.00
10:53 pm 22:53 Cloudy -1 -18.3 -9 -22.8 68 68 W 5 7 30.38 1029 10 16 0.00 0.00
11:53 pm 23:53 Cloudy -1 -18.3 -8 -22.2 72 72 W 7 11 30.39 1029 10 16 0.00 0.00

Powered by AerisWeather